PRIVATE WETTERSTATION BILLIGHEIM-ALLFELD                       ZURCK
Wetterdaten: Dienstag, 28.11.2017
Datum Zeit Temp. A. Temp. A. min Temp. A. max Feuchte A. Luftdruck Regen Wind Richtung Richtung Sonnenschein ET Solar Taupunkt Windchill Windben Empfang
28.11.2017 00:00 4,1 C 4,0 C 4,1 C 91 % 1013,2 hPa 0,0 l/m 16,1 km/h (3 Bft) S-SW 202 0 min 0,025 mm 0 W/m 2,8 C -2,6 C 40,2 km/h (6 Bft) 100 %
28.11.2017 00:10 4,1 C 4,1 C 4,1 C 91 % 1013,1 hPa 0,0 l/m 14,5 km/h (3 Bft) SW 225 0 min 0,000 mm 0 W/m 2,8 C -1,7 C 30,6 km/h (5 Bft) 88 %
28.11.2017 00:20 4,1 C 4,1 C 4,1 C 91 % 1012,8 hPa 0,2 l/m 11,3 km/h (2 Bft) SW 225 0 min 0,000 mm 0 W/m 2,8 C 0,2 C 27,4 km/h (4 Bft) 100 %
28.11.2017 00:30 4,1 C 4,1 C 4,1 C 91 % 1012,6 hPa 0,2 l/m 11,3 km/h (2 Bft) SW 225 0 min 0,000 mm 0 W/m 2,8 C 0,2 C 24,1 km/h (4 Bft) 100 %
28.11.2017 00:40 4,0 C 4,0 C 4,1 C 91 % 1012,5 hPa 0,2 l/m 9,7 km/h (2 Bft) SW 225 0 min 0,000 mm 0 W/m 2,7 C 1,2 C 20,9 km/h (4 Bft) 100 %
28.11.2017 00:50 4,1 C 4,0 C 4,1 C 91 % 1012,4 hPa 0,2 l/m 14,5 km/h (3 Bft) S-SW 202 0 min 0,000 mm 0 W/m 2,8 C -1,7 C 24,1 km/h (4 Bft) 100 %
28.11.2017 01:00 4,0 C 4,0 C 4,1 C 91 % 1012,3 hPa 0,0 l/m 11,3 km/h (2 Bft) SW 225 0 min 0,000 mm 0 W/m 2,7 C 0,1 C 24,1 km/h (4 Bft) 99 %
28.11.2017 01:10 4,0 C 4,0 C 4,0 C 91 % 1012,1 hPa 0,2 l/m 8,0 km/h (2 Bft) SW 225 0 min 0,000 mm 0 W/m 2,7 C 2,6 C 19,3 km/h (3 Bft) 100 %
28.11.2017 01:20 4,0 C 4,0 C 4,1 C 91 % 1012,0 hPa 0,0 l/m 12,9 km/h (3 Bft) S-SW 202 0 min 0,000 mm 0 W/m 2,7 C -1,0 C 30,6 km/h (5 Bft) 100 %
28.11.2017 01:30 4,0 C 4,0 C 4,1 C 91 % 1011,8 hPa 0,2 l/m 11,3 km/h (2 Bft) S-SW 202 0 min 0,000 mm 0 W/m 2,7 C 0,1 C 22,5 km/h (4 Bft) 100 %
28.11.2017 01:40 4,0 C 4,0 C 4,1 C 91 % 1011,7 hPa 0,2 l/m 9,7 km/h (2 Bft) SW 225 0 min 0,000 mm 0 W/m 2,7 C 1,2 C 20,9 km/h (4 Bft) 100 %
28.11.2017 01:50 4,1 C 4,0 C 4,1 C 91 % 1011,6 hPa 0,2 l/m 11,3 km/h (2 Bft) SW 225 0 min 0,000 mm 0 W/m 2,8 C 0,2 C 24,1 km/h (4 Bft) 100 %
28.11.2017 02:00 4,1 C 4,0 C 4,1 C 91 % 1011,4 hPa 0,0 l/m 12,9 km/h (3 Bft) SW 225 0 min 0,000 mm 0 W/m 2,8 C -0,8 C 29,0 km/h (5 Bft) 100 %
28.11.2017 02:10 4,1 C 4,0 C 4,1 C 91 % 1011,3 hPa 0,2 l/m 12,9 km/h (3 Bft) SW 225 0 min 0,000 mm 0 W/m 2,8 C -0,8 C 27,4 km/h (4 Bft) 100 %
28.11.2017 02:20 4,1 C 4,0 C 4,1 C 91 % 1011,2 hPa 0,0 l/m 12,9 km/h (3 Bft) S-SW 202 0 min 0,000 mm 0 W/m 2,8 C -0,8 C 25,7 km/h (4 Bft) 100 %
28.11.2017 02:30 4,0 C 4,0 C 4,1 C 91 % 1011,1 hPa 0,0 l/m 14,5 km/h (3 Bft) S-SW 202 0 min 0,000 mm 0 W/m 2,7 C -1,9 C 27,4 km/h (4 Bft) 100 %
28.11.2017 02:40 4,1 C 4,1 C 4,1 C 91 % 1011,1 hPa 0,2 l/m 16,1 km/h (3 Bft) S-SW 202 0 min 0,000 mm 0 W/m 2,8 C -2,6 C 27,4 km/h (4 Bft) 100 %
28.11.2017 02:50 4,1 C 4,1 C 4,1 C 91 % 1010,9 hPa 0,0 l/m 14,5 km/h (3 Bft) S-SW 202 0 min 0,000 mm 0 W/m 2,8 C -1,7 C 22,5 km/h (4 Bft) 100 %
28.11.2017 03:00 4,1 C 4,1 C 4,1 C 91 % 1010,8 hPa 0,0 l/m 14,5 km/h (3 Bft) S-SW 202 0 min 0,000 mm 0 W/m 2,8 C -1,7 C 25,7 km/h (4 Bft) 100 %
28.11.2017 03:10 4,1 C 4,1 C 4,1 C 91 % 1010,5 hPa 0,0 l/m 12,9 km/h (3 Bft) S-SW 202 0 min 0,000 mm 0 W/m 2,8 C -0,8 C 24,1 km/h (4 Bft) 100 %
28.11.2017 03:20 4,1 C 4,1 C 4,1 C 91 % 1010,5 hPa 0,0 l/m 16,1 km/h (3 Bft) S-SW 202 0 min 0,000 mm 0 W/m 2,8 C -2,6 C 29,0 km/h (5 Bft) 99 %
28.11.2017 03:30 4,1 C 4,1 C 4,1 C 91 % 1010,3 hPa 0,0 l/m 14,5 km/h (3 Bft) S-SW 202 0 min 0,000 mm 0 W/m 2,8 C -1,7 C 25,7 km/h (4 Bft) 100 %
28.11.2017 03:40 4,2 C 4,1 C 4,2 C 91 % 1010,1 hPa 0,0 l/m 12,9 km/h (3 Bft) S-SW 202 0 min 0,000 mm 0 W/m 2,9 C -0,7 C 22,5 km/h (4 Bft) 100 %
28.11.2017 03:50 4,1 C 4,1 C 4,2 C 91 % 1009,9 hPa 0,0 l/m 9,7 km/h (2 Bft) S-SW 202 0 min 0,000 mm 0 W/m 2,8 C 1,3 C 22,5 km/h (4 Bft) 100 %
28.11.2017 04:00 3,8 C 3,8 C 4,1 C 91 % 1009,7 hPa 0,2 l/m 8,0 km/h (2 Bft) S 180 0 min 0,000 mm 0 W/m 2,5 C 2,3 C 19,3 km/h (3 Bft) 100 %
28.11.2017 04:10 3,7 C 3,7 C 3,8 C 91 % 1009,7 hPa 0,0 l/m 8,0 km/h (2 Bft) S-SW 202 0 min 0,000 mm 0 W/m 2,4 C 2,2 C 19,3 km/h (3 Bft) 100 %
28.11.2017 04:20 3,6 C 3,6 C 3,7 C 91 % 1009,4 hPa 0,2 l/m 11,3 km/h (2 Bft) S-SW 202 0 min 0,000 mm 0 W/m 2,3 C -0,4 C 22,5 km/h (4 Bft) 100 %
28.11.2017 04:30 3,6 C 3,6 C 3,6 C 90 % 1009,4 hPa 0,0 l/m 11,3 km/h (2 Bft) S-SW 202 0 min 0,000 mm 0 W/m 2,1 C -0,4 C 22,5 km/h (4 Bft) 100 %
28.11.2017 04:40 3,6 C 3,6 C 3,6 C 90 % 1009,2 hPa 0,2 l/m 11,3 km/h (2 Bft) S-SW 202 0 min 0,000 mm 0 W/m 2,1 C -0,4 C 22,5 km/h (4 Bft) 100 %
28.11.2017 04:50 3,6 C 3,6 C 3,6 C 90 % 1009,1 hPa 0,2 l/m 12,9 km/h (3 Bft) S-SW 202 0 min 0,000 mm 0 W/m 2,1 C -1,4 C 22,5 km/h (4 Bft) 100 %
28.11.2017 05:00 3,6 C 3,6 C 3,6 C 90 % 1009,0 hPa 0,0 l/m 8,0 km/h (2 Bft) S-SW 202 0 min 0,000 mm 0 W/m 2,1 C 2,1 C 19,3 km/h (3 Bft) 100 %
28.11.2017 05:10 3,6 C 3,6 C 3,6 C 90 % 1008,9 hPa 0,0 l/m 11,3 km/h (2 Bft) S-SW 202 0 min 0,000 mm 0 W/m 2,1 C -0,4 C 19,3 km/h (3 Bft) 100 %
28.11.2017 05:20 3,6 C 3,6 C 3,6 C 91 % 1008,8 hPa 0,2 l/m 8,0 km/h (2 Bft) S-SW 202 0 min 0,000 mm 0 W/m 2,3 C 2,1 C 19,3 km/h (3 Bft) 100 %
28.11.2017 05:30 3,6 C 3,6 C 3,6 C 91 % 1008,8 hPa 0,0 l/m 8,0 km/h (2 Bft) S-SW 202 0 min 0,000 mm 0 W/m 2,3 C 2,1 C 19,3 km/h (3 Bft) 100 %
28.11.2017 05:40 3,6 C 3,6 C 3,6 C 91 % 1008,8 hPa 0,2 l/m 6,4 km/h (2 Bft) S-SW 202 0 min 0,000 mm 0 W/m 2,3 C 3,6 C 14,5 km/h (3 Bft) 100 %
28.11.2017 05:50 3,6 C 3,6 C 3,6 C 91 % 1008,7 hPa 0,0 l/m 8,0 km/h (2 Bft) S-SW 202 0 min 0,000 mm 0 W/m 2,3 C 2,1 C 14,5 km/h (3 Bft) 100 %
28.11.2017 06:00 3,6 C 3,6 C 3,6 C 91 % 1008,7 hPa 0,2 l/m 6,4 km/h (2 Bft) S-SW 202 0 min 0,000 mm 0 W/m 2,3 C 3,6 C 14,5 km/h (3 Bft) 100 %
28.11.2017 06:10 3,7 C 3,6 C 3,7 C 91 % 1008,7 hPa 0,2 l/m 8,0 km/h (2 Bft) S-SW 202 0 min 0,000 mm 0 W/m 2,4 C 2,2 C 16,1 km/h (3 Bft) 100 %
28.11.2017 06:20 3,7 C 3,7 C 3,7 C 91 % 1008,4 hPa 0,2 l/m 6,4 km/h (2 Bft) S-SW 202 0 min 0,000 mm 0 W/m 2,4 C 3,7 C 14,5 km/h (3 Bft) 100 %
28.11.2017 06:30 3,7 C 3,7 C 3,7 C 91 % 1008,4 hPa 0,2 l/m 6,4 km/h (2 Bft) S-SW 202 0 min 0,000 mm 0 W/m 2,4 C 3,7 C 19,3 km/h (3 Bft) 100 %
28.11.2017 06:40 3,7 C 3,7 C 3,7 C 91 % 1008,3 hPa 0,0 l/m 8,0 km/h (2 Bft) S-SW 202 0 min 0,000 mm 0 W/m 2,4 C 2,2 C 19,3 km/h (3 Bft) 100 %
28.11.2017 06:50 3,8 C 3,7 C 3,8 C 91 % 1008,4 hPa 0,2 l/m 8,0 km/h (2 Bft) SW 225 0 min 0,000 mm 0 W/m 2,5 C 2,3 C 19,3 km/h (3 Bft) 100 %
28.11.2017 07:00 3,8 C 3,8 C 3,9 C 91 % 1008,4 hPa 0,2 l/m 11,3 km/h (2 Bft) SW 225 0 min 0,000 mm 0 W/m 2,5 C -0,2 C 25,7 km/h (4 Bft) 100 %
28.11.2017 07:10 3,9 C 3,8 C 3,9 C 91 % 1008,3 hPa 0,2 l/m 12,9 km/h (3 Bft) SW 225 0 min 0,000 mm 0 W/m 2,6 C -1,1 C 29,0 km/h (5 Bft) 100 %
28.11.2017 07:20 3,9 C 3,9 C 3,9 C 91 % 1008,4 hPa 0,2 l/m 14,5 km/h (3 Bft) SW 225 0 min 0,000 mm 0 W/m 2,6 C -2,0 C 40,2 km/h (6 Bft) 100 %
28.11.2017 07:30 3,8 C 3,8 C 3,9 C 91 % 1008,6 hPa 0,2 l/m 12,9 km/h (3 Bft) SW 225 0 min 0,000 mm 0 W/m 2,5 C -1,2 C 30,6 km/h (5 Bft) 100 %
28.11.2017 07:40 3,8 C 3,8 C 3,8 C 91 % 1008,5 hPa 0,2 l/m 11,3 km/h (2 Bft) SW 225 0 min 0,000 mm 0 W/m 2,5 C -0,2 C 32,2 km/h (5 Bft) 100 %
28.11.2017 07:50 3,8 C 3,8 C 3,8 C 91 % 1008,5 hPa 0,4 l/m 12,9 km/h (3 Bft) SW 225 0 min 0,000 mm 0 W/m 2,5 C -1,2 C 30,6 km/h (5 Bft) 100 %
28.11.2017 08:00 3,8 C 3,7 C 3,8 C 91 % 1008,5 hPa 0,0 l/m 9,7 km/h (2 Bft) SW 225 0 min 0,000 mm 0 W/m 2,5 C 1,0 C 27,4 km/h (4 Bft) 100 %
28.11.2017 08:10 3,7 C 3,7 C 3,8 C 91 % 1008,5 hPa 0,2 l/m 12,9 km/h (3 Bft) SW 225 0 min 0,000 mm 0 W/m 2,4 C -1,3 C 29,0 km/h (5 Bft) 100 %
28.11.2017 08:20 3,7 C 3,7 C 3,7 C 91 % 1008,4 hPa 0,0 l/m 9,7 km/h (2 Bft) SW 225 0 min 0,000 mm 0 W/m 2,4 C 0,9 C 25,7 km/h (4 Bft) 100 %
28.11.2017 08:30 3,7 C 3,7 C 3,8 C 91 % 1008,4 hPa 0,0 l/m 12,9 km/h (3 Bft) SW 225 0 min 0,000 mm 0 W/m 2,4 C -1,3 C 25,7 km/h (4 Bft) 100 %
28.11.2017 08:40 3,8 C 3,7 C 3,8 C 91 % 1008,5 hPa 0,2 l/m 12,9 km/h (3 Bft) SW 225 0 min 0,000 mm 5 W/m 2,5 C -1,2 C 29,0 km/h (5 Bft) 100 %
28.11.2017 08:50 3,8 C 3,8 C 3,8 C 91 % 1008,4 hPa 0,0 l/m 11,3 km/h (2 Bft) SW 225 0 min 0,000 mm 7 W/m 2,5 C -0,2 C 25,7 km/h (4 Bft) 100 %
28.11.2017 09:00 3,8 C 3,8 C 3,8 C 91 % 1008,4 hPa 0,2 l/m 11,3 km/h (2 Bft) SW 225 0 min 0,000 mm 7 W/m 2,5 C -0,2 C 33,8 km/h (5 Bft) 100 %
28.11.2017 09:10 3,8 C 3,8 C 3,8 C 91 % 1008,5 hPa 0,0 l/m 16,1 km/h (3 Bft) SW 225 0 min 0,000 mm 7 W/m 2,5 C -2,9 C 27,4 km/h (4 Bft) 100 %
28.11.2017 09:20 3,8 C 3,8 C 3,8 C 91 % 1008,5 hPa 0,0 l/m 14,5 km/h (3 Bft) SW 225 0 min 0,000 mm 11 W/m 2,5 C -2,1 C 29,0 km/h (5 Bft) 100 %
28.11.2017 09:30 3,9 C 3,8 C 3,9 C 91 % 1008,5 hPa 0,0 l/m 14,5 km/h (3 Bft) SW 225 0 min 0,000 mm 9 W/m 2,6 C -2,0 C 29,0 km/h (5 Bft) 100 %
28.11.2017 09:40 3,9 C 3,9 C 3,9 C 91 % 1008,5 hPa 0,0 l/m 12,9 km/h (3 Bft) S-SW 202 0 min 0,000 mm 9 W/m 2,6 C -1,1 C 29,0 km/h (5 Bft) 100 %
28.11.2017 09:50 3,9 C 3,9 C 3,9 C 91 % 1008,5 hPa 0,0 l/m 11,3 km/h (2 Bft) SW 225 0 min 0,000 mm 9 W/m 2,6 C -0,1 C 27,4 km/h (4 Bft) 100 %
28.11.2017 10:00 3,9 C 3,9 C 3,9 C 91 % 1008,7 hPa 0,0 l/m 9,7 km/h (2 Bft) SW 225 0 min 0,025 mm 7 W/m 2,6 C 1,1 C 24,1 km/h (4 Bft) 100 %
28.11.2017 10:10 4,0 C 3,9 C 4,0 C 91 % 1008,6 hPa 0,0 l/m 8,0 km/h (2 Bft) SW 225 0 min 0,000 mm 11 W/m 2,7 C 2,6 C 22,5 km/h (4 Bft) 100 %
28.11.2017 10:20 4,0 C 4,0 C 4,0 C 91 % 1008,7 hPa 0,0 l/m 12,9 km/h (3 Bft) SW 225 0 min 0,000 mm 12 W/m 2,7 C -1,0 C 27,4 km/h (4 Bft) 100 %
28.11.2017 10:30 4,1 C 4,0 C 4,1 C 91 % 1008,9 hPa 0,0 l/m 11,3 km/h (2 Bft) W-SW 247 0 min 0,000 mm 14 W/m 2,8 C 0,2 C 29,0 km/h (5 Bft) 100 %
28.11.2017 10:40 4,1 C 4,1 C 4,1 C 91 % 1009,0 hPa 0,0 l/m 11,3 km/h (2 Bft) SW 225 0 min 0,000 mm 7 W/m 2,8 C 0,2 C 27,4 km/h (4 Bft) 100 %
28.11.2017 10:50 4,1 C 4,1 C 4,1 C 91 % 1008,9 hPa 0,0 l/m 9,7 km/h (2 Bft) W-SW 247 0 min 0,000 mm 5 W/m 2,8 C 1,3 C 30,6 km/h (5 Bft) 100 %
28.11.2017 11:00 4,1 C 4,1 C 4,1 C 91 % 1008,9 hPa 0,0 l/m 9,7 km/h (2 Bft) W-SW 247 0 min 0,000 mm 7 W/m 2,8 C 1,3 C 27,4 km/h (4 Bft) 100 %
28.11.2017 11:10 4,1 C 4,1 C 4,1 C 91 % 1008,8 hPa 0,0 l/m 9,7 km/h (2 Bft) W-SW 247 0 min 0,000 mm 37 W/m 2,8 C 1,3 C 24,1 km/h (4 Bft) 100 %
28.11.2017 11:20 4,2 C 4,1 C 4,2 C 91 % 1008,8 hPa 0,0 l/m 11,3 km/h (2 Bft) W-SW 247 0 min 0,000 mm 46 W/m 2,9 C 0,3 C 33,8 km/h (5 Bft) 100 %
28.11.2017 11:30 4,3 C 4,2 C 4,3 C 91 % 1008,8 hPa 0,0 l/m 6,4 km/h (2 Bft) W 270 0 min 0,000 mm 67 W/m 3,0 C 4,3 C 20,9 km/h (4 Bft) 100 %
28.11.2017 11:40 4,3 C 4,2 C 4,3 C 91 % 1008,6 hPa 0,0 l/m 8,0 km/h (2 Bft) W 270 0 min 0,000 mm 104 W/m 3,0 C 2,9 C 27,4 km/h (4 Bft) 100 %
28.11.2017 11:50 4,3 C 4,3 C 4,4 C 91 % 1008,6 hPa 0,2 l/m 14,5 km/h (3 Bft) W-SW 247 0 min 0,000 mm 84 W/m 3,0 C -1,5 C 40,2 km/h (6 Bft) 100 %
28.11.2017 12:00 4,3 C 4,3 C 4,3 C 91 % 1008,5 hPa 0,0 l/m 12,9 km/h (3 Bft) W-SW 247 0 min 0,025 mm 77 W/m 3,0 C -0,6 C 27,4 km/h (4 Bft) 100 %
28.11.2017 12:10 4,3 C 4,3 C 4,3 C 91 % 1008,5 hPa 0,0 l/m 14,5 km/h (3 Bft) W 270 0 min 0,000 mm 72 W/m 3,0 C -1,5 C 32,2 km/h (5 Bft) 100 %
28.11.2017 12:20 4,3 C 4,3 C 4,3 C 91 % 1008,4 hPa 0,0 l/m 11,3 km/h (2 Bft) W-SW 247 0 min 0,000 mm 72 W/m 3,0 C 0,4 C 30,6 km/h (5 Bft) 100 %
28.11.2017 12:30 4,3 C 4,3 C 4,3 C 91 % 1008,2 hPa 0,0 l/m 16,1 km/h (3 Bft) W-SW 247 0 min 0,000 mm 88 W/m 3,0 C -2,3 C 38,6 km/h (5 Bft) 100 %
28.11.2017 12:40 4,3 C 4,3 C 4,3 C 91 % 1008,2 hPa 0,0 l/m 9,7 km/h (2 Bft) W-SW 247 0 min 0,000 mm 81 W/m 3,0 C 1,5 C 22,5 km/h (4 Bft) 100 %
28.11.2017 12:50 4,3 C 4,3 C 4,3 C 91 % 1008,1 hPa 0,0 l/m 9,7 km/h (2 Bft) W-SW 247 0 min 0,000 mm 86 W/m 3,0 C 1,5 C 25,7 km/h (4 Bft) 100 %
28.11.2017 13:00 4,3 C 4,3 C 4,3 C 91 % 1008,1 hPa 0,0 l/m 8,0 km/h (2 Bft) W-SW 247 0 min 0,025 mm 54 W/m 3,0 C 2,9 C 24,1 km/h (4 Bft) 100 %
28.11.2017 13:10 4,2 C 4,2 C 4,3 C 91 % 1008,1 hPa 0,0 l/m 8,0 km/h (2 Bft) W-SW 247 0 min 0,000 mm 37 W/m 2,9 C 2,8 C 24,1 km/h (4 Bft) 100 %
28.11.2017 13:20 4,2 C 4,2 C 4,3 C 91 % 1008,0 hPa 0,0 l/m 8,0 km/h (2 Bft) W 270 0 min 0,000 mm 33 W/m 2,9 C 2,8 C 22,5 km/h (4 Bft) 100 %
28.11.2017 13:30 4,2 C 4,2 C 4,2 C 91 % 1008,0 hPa 0,0 l/m 6,4 km/h (2 Bft) W-SW 247 0 min 0,000 mm 40 W/m 2,9 C 4,2 C 16,1 km/h (3 Bft) 100 %
28.11.2017 13:40 4,1 C 4,1 C 4,2 C 91 % 1007,9 hPa 0,0 l/m 6,4 km/h (2 Bft) W-SW 247 0 min 0,000 mm 56 W/m 2,8 C 4,1 C 17,7 km/h (3 Bft) 100 %
28.11.2017 13:50 4,2 C 4,1 C 4,2 C 91 % 1007,9 hPa 0,0 l/m 6,4 km/h (2 Bft) W 270 0 min 0,000 mm 72 W/m 2,9 C 4,2 C 22,5 km/h (4 Bft) 100 %
28.11.2017 14:00 4,2 C 4,2 C 4,2 C 91 % 1008,0 hPa 0,0 l/m 8,0 km/h (2 Bft) W 270 0 min 0,025 mm 69 W/m 2,9 C 2,8 C 20,9 km/h (4 Bft) 100 %
28.11.2017 14:10 4,1 C 4,1 C 4,2 C 91 % 1007,8 hPa 0,0 l/m 8,0 km/h (2 Bft) W 270 0 min 0,000 mm 35 W/m 2,8 C 2,7 C 22,5 km/h (4 Bft) 100 %
28.11.2017 14:20 4,1 C 4,1 C 4,1 C 91 % 1007,6 hPa 0,0 l/m 4,8 km/h (1 Bft) W 270 0 min 0,000 mm 39 W/m 2,8 C 4,1 C 14,5 km/h (3 Bft) 100 %
28.11.2017 14:30 4,1 C 4,1 C 4,1 C 91 % 1007,6 hPa 0,0 l/m 3,2 km/h (1 Bft) W 270 0 min 0,000 mm 76 W/m 2,8 C 4,1 C 14,5 km/h (3 Bft) 100 %
28.11.2017 14:40 4,1 C 4,1 C 4,1 C 91 % 1007,6 hPa 0,0 l/m 4,8 km/h (1 Bft) W 270 0 min 0,000 mm 76 W/m 2,8 C 4,1 C 14,5 km/h (3 Bft) 99 %
28.11.2017 14:50 4,2 C 4,1 C 4,2 C 91 % 1007,5 hPa 0,0 l/m 4,8 km/h (1 Bft) W 270 0 min 0,000 mm 77 W/m 2,9 C 4,2 C 11,3 km/h (2 Bft) 99 %
28.11.2017 15:00 4,2 C 4,2 C 4,2 C 91 % 1007,5 hPa 0,0 l/m 4,8 km/h (1 Bft) W-SW 247 0 min 0,025 mm 77 W/m 2,9 C 4,2 C 14,5 km/h (3 Bft) 100 %
28.11.2017 15:10 4,2 C 4,2 C 4,2 C 91 % 1007,5 hPa 0,0 l/m 3,2 km/h (1 Bft) W 270 0 min 0,000 mm 56 W/m 2,9 C 4,2 C 11,3 km/h (2 Bft) 100 %
28.11.2017 15:20 4,2 C 4,2 C 4,2 C 91 % 1007,4 hPa 0,0 l/m 1,6 km/h (1 Bft) W-SW 247 0 min 0,000 mm 32 W/m 2,9 C 4,2 C 11,3 km/h (2 Bft) 100 %
28.11.2017 15:30 4,1 C 4,1 C 4,2 C 91 % 1007,5 hPa 0,0 l/m 3,2 km/h (1 Bft) SW 225 0 min 0,000 mm 21 W/m 2,8 C 4,1 C 11,3 km/h (2 Bft) 100 %
28.11.2017 15:40 4,1 C 4,1 C 4,1 C 91 % 1007,5 hPa 0,0 l/m 4,8 km/h (1 Bft) SW 225 0 min 0,000 mm 19 W/m 2,8 C 4,1 C 12,9 km/h (3 Bft) 100 %
28.11.2017 15:50 4,1 C 4,1 C 4,1 C 91 % 1007,5 hPa 0,0 l/m 0,0 km/h (0 Bft) SW 225 0 min 0,000 mm 12 W/m 2,8 C 4,1 C 6,4 km/h (2 Bft) 100 %
28.11.2017 16:00 4,0 C 4,0 C 4,1 C 91 % 1007,3 hPa 0,0 l/m 1,6 km/h (1 Bft) SW 225 0 min 0,000 mm 5 W/m 2,7 C 4,0 C 8,0 km/h (2 Bft) 100 %
28.11.2017 16:10 3,9 C 3,9 C 4,0 C 91 % 1007,3 hPa 0,0 l/m 1,6 km/h (1 Bft) S-SW 202 0 min 0,000 mm 0 W/m 2,6 C 3,9 C 8,0 km/h (2 Bft) 100 %
28.11.2017 16:20 3,9 C 3,9 C 3,9 C 91 % 1007,5 hPa 0,0 l/m 1,6 km/h (1 Bft) S-SW 202 0 min 0,000 mm 0 W/m 2,6 C 3,9 C 8,0 km/h (2 Bft) 99 %
28.11.2017 16:30 3,8 C 3,8 C 3,9 C 91 % 1007,3 hPa 0,0 l/m 4,8 km/h (1 Bft) S-SW 202 0 min 0,000 mm 0 W/m 2,5 C 3,8 C 11,3 km/h (2 Bft) 97 %
28.11.2017 16:40 3,8 C 3,8 C 3,9 C 91 % 1007,3 hPa 0,0 l/m 6,4 km/h (2 Bft) S-SW 202 0 min 0,000 mm 0 W/m 2,5 C 3,8 C 14,5 km/h (3 Bft) 98 %
28.11.2017 16:50 3,7 C 3,7 C 3,8 C 91 % 1007,3 hPa 0,0 l/m 4,8 km/h (1 Bft) S-SW 202 0 min 0,000 mm 0 W/m 2,4 C 3,7 C 16,1 km/h (3 Bft) 98 %
28.11.2017 17:00 3,7 C 3,6 C 3,7 C 91 % 1007,3 hPa 0,0 l/m 6,4 km/h (2 Bft) S-SW 202 0 min 0,000 mm 0 W/m 2,4 C 3,7 C 14,5 km/h (3 Bft) 97 %
28.11.2017 17:10 3,6 C 3,6 C 3,7 C 91 % 1007,2 hPa 0,0 l/m 4,8 km/h (1 Bft) SW 225 0 min 0,000 mm 0 W/m 2,3 C 3,6 C 11,3 km/h (2 Bft) 97 %
28.11.2017 17:20 3,6 C 3,6 C 3,6 C 90 % 1007,2 hPa 0,0 l/m 6,4 km/h (2 Bft) S-SW 202 0 min 0,000 mm 0 W/m 2,1 C 3,6 C 12,9 km/h (3 Bft) 97 %
28.11.2017 17:30 3,6 C 3,6 C 3,6 C 90 % 1007,1 hPa 0,0 l/m 6,4 km/h (2 Bft) S-SW 202 0 min 0,000 mm 0 W/m 2,1 C 3,6 C 11,3 km/h (2 Bft) 98 %
28.11.2017 17:40 3,6 C 3,6 C 3,6 C 90 % 1007,0 hPa 0,0 l/m 4,8 km/h (1 Bft) S-SW 202 0 min 0,000 mm 0 W/m 2,1 C 3,6 C 11,3 km/h (2 Bft) 98 %
28.11.2017 17:50 3,5 C 3,5 C 3,6 C 90 % 1006,9 hPa 0,0 l/m 4,8 km/h (1 Bft) S-SW 202 0 min 0,000 mm 0 W/m 2,0 C 3,5 C 11,3 km/h (2 Bft) 98 %
28.11.2017 18:00 3,5 C 3,5 C 3,5 C 90 % 1006,9 hPa 0,0 l/m 6,4 km/h (2 Bft) S-SW 202 0 min 0,000 mm 0 W/m 2,0 C 3,5 C 12,9 km/h (3 Bft) 97 %
28.11.2017 18:10 3,5 C 3,5 C 3,5 C 90 % 1006,8 hPa 0,0 l/m 4,8 km/h (1 Bft) S-SW 202 0 min 0,000 mm 0 W/m 2,0 C 3,5 C 9,7 km/h (2 Bft) 98 %
28.11.2017 18:20 3,5 C 3,4 C 3,5 C 91 % 1006,9 hPa 0,0 l/m 4,8 km/h (1 Bft) S-SW 202 0 min 0,000 mm 0 W/m 2,2 C 3,5 C 9,7 km/h (2 Bft) 98 %
28.11.2017 18:40 3,4 C 3,4 C 3,5 C 91 % 1006,9 hPa 0,0 l/m 5,1 km/h (1 Bft) S-SW 211 0 min 0,000 mm 0 W/m 2,1 C 3,4 C 11,3 km/h (2 Bft) 100 %
28.11.2017 18:50 3,4 C 3,4 C 3,4 C 91 % 1007,0 hPa 0,0 l/m 4,7 km/h (1 Bft) SW 226 0 min 0,000 mm 0 W/m 2,1 C 3,4 C 11,3 km/h (2 Bft) 100 %
28.11.2017 19:00 3,4 C 3,4 C 3,4 C 91 % 1007,0 hPa 0,0 l/m 3,8 km/h (1 Bft) SW 226 0 min 0,000 mm 0 W/m 2,1 C 3,4 C 11,3 km/h (2 Bft) 100 %
28.11.2017 19:10 3,4 C 3,4 C 3,4 C 91 % 1006,8 hPa 0,0 l/m 3,0 km/h (1 Bft) S-SW 211 0 min 0,000 mm 0 W/m 2,1 C 3,4 C 8,0 km/h (2 Bft) 100 %
28.11.2017 19:20 3,3 C 3,3 C 3,4 C 91 % 1006,7 hPa 0,0 l/m 5,8 km/h (2 Bft) W 259 0 min 0,000 mm 0 W/m 2,0 C 3,3 C 16,1 km/h (3 Bft) 100 %
28.11.2017 19:30 3,3 C 3,3 C 3,3 C 91 % 1006,6 hPa 0,0 l/m 3,7 km/h (1 Bft) W-SW 248 0 min 0,000 mm 0 W/m 2,0 C 3,3 C 8,0 km/h (2 Bft) 100 %
28.11.2017 19:40 3,2 C 3,2 C 3,3 C 91 % 1006,8 hPa 0,0 l/m 2,5 km/h (1 Bft) S-SW 206 0 min 0,000 mm 0 W/m 1,9 C 3,2 C 11,3 km/h (2 Bft) 100 %
28.11.2017 19:50 3,2 C 3,2 C 3,2 C 91 % 1006,8 hPa 0,0 l/m 3,8 km/h (1 Bft) SW 224 0 min 0,000 mm 0 W/m 1,9 C 3,2 C 9,7 km/h (2 Bft) 100 %
28.11.2017 20:00 3,2 C 3,2 C 3,2 C 91 % 1006,7 hPa 0,0 l/m 4,0 km/h (1 Bft) SW 217 0 min 0,000 mm 0 W/m 1,9 C 3,2 C 11,3 km/h (2 Bft) 100 %
28.11.2017 20:10 3,1 C 3,1 C 3,2 C 91 % 1006,6 hPa 0,0 l/m 6,1 km/h (2 Bft) S-SW 202 0 min 0,000 mm 0 W/m 1,8 C 3,1 C 14,5 km/h (3 Bft) 100 %
28.11.2017 20:20 3,1 C 3,1 C 3,1 C 91 % 1006,6 hPa 0,0 l/m 4,2 km/h (1 Bft) SW 217 0 min 0,000 mm 0 W/m 1,8 C 3,1 C 9,7 km/h (2 Bft) 100 %
28.11.2017 20:30 3,1 C 3,1 C 3,1 C 91 % 1006,7 hPa 0,0 l/m 5,0 km/h (1 Bft) SW 224 0 min 0,000 mm 0 W/m 1,8 C 3,1 C 14,5 km/h (3 Bft) 100 %
28.11.2017 20:40 3,1 C 3,1 C 3,1 C 91 % 1006,5 hPa 0,0 l/m 3,4 km/h (1 Bft) SW 229 0 min 0,000 mm 0 W/m 1,8 C 3,1 C 8,0 km/h (2 Bft) 100 %
28.11.2017 20:50 3,0 C 3,0 C 3,1 C 91 % 1006,4 hPa 0,0 l/m 4,7 km/h (1 Bft) W-SW 239 0 min 0,000 mm 0 W/m 1,7 C 3,0 C 9,7 km/h (2 Bft) 100 %
28.11.2017 21:00 2,9 C 2,9 C 3,0 C 91 % 1006,5 hPa 0,2 l/m 4,4 km/h (1 Bft) W-SW 256 0 min 0,000 mm 0 W/m 1,6 C 2,9 C 12,9 km/h (3 Bft) 100 %
28.11.2017 21:10 2,8 C 2,8 C 2,9 C 91 % 1006,4 hPa 0,0 l/m 1,6 km/h (1 Bft) SW 225 0 min 0,000 mm 0 W/m 1,5 C 2,8 C 6,4 km/h (2 Bft) 89 %
28.11.2017 21:20 2,7 C 2,7 C 2,8 C 91 % 1006,5 hPa 0,0 l/m 1,6 km/h (1 Bft) SW 225 0 min 0,000 mm 0 W/m 1,4 C 2,7 C 4,8 km/h (1 Bft) 98 %
28.11.2017 21:30 2,7 C 2,7 C 2,7 C 91 % 1006,5 hPa 0,0 l/m 1,6 km/h (1 Bft) W-SW 247 0 min 0,000 mm 0 W/m 1,4 C 2,7 C 8,0 km/h (2 Bft) 98 %
28.11.2017 21:40 2,6 C 2,6 C 2,7 C 91 % 1006,5 hPa 0,0 l/m 1,6 km/h (1 Bft) SW 225 0 min 0,000 mm 0 W/m 1,3 C 2,6 C 9,7 km/h (2 Bft) 97 %
28.11.2017 21:50 2,6 C 2,6 C 2,7 C 91 % 1006,6 hPa 0,0 l/m 4,8 km/h (1 Bft) SW 225 0 min 0,000 mm 0 W/m 1,3 C 2,6 C 11,3 km/h (2 Bft) 97 %
28.11.2017 22:00 2,7 C 2,6 C 2,7 C 91 % 1006,6 hPa 0,0 l/m 4,8 km/h (1 Bft) SW 225 0 min 0,000 mm 0 W/m 1,4 C 2,7 C 9,7 km/h (2 Bft) 98 %
28.11.2017 22:10 2,6 C 2,6 C 2,7 C 91 % 1006,5 hPa 0,0 l/m 4,8 km/h (1 Bft) SW 225 0 min 0,000 mm 0 W/m 1,3 C 2,6 C 11,3 km/h (2 Bft) 97 %
28.11.2017 22:20 2,6 C 2,6 C 2,6 C 91 % 1006,6 hPa 0,0 l/m 4,8 km/h (1 Bft) SW 225 0 min 0,000 mm 0 W/m 1,3 C 2,6 C 11,3 km/h (2 Bft) 96 %
28.11.2017 22:30 2,6 C 2,6 C 2,6 C 91 % 1006,6 hPa 0,0 l/m 3,2 km/h (1 Bft) SW 225 0 min 0,000 mm 0 W/m 1,3 C 2,6 C 9,7 km/h (2 Bft) 97 %
28.11.2017 22:40 2,5 C 2,5 C 2,6 C 91 % 1006,6 hPa 0,0 l/m 3,2 km/h (1 Bft) SW 225 0 min 0,000 mm 0 W/m 1,2 C 2,5 C 8,0 km/h (2 Bft) 97 %
28.11.2017 22:50 2,5 C 2,5 C 2,5 C 91 % 1006,6 hPa 0,0 l/m 0,0 km/h (0 Bft) N 0 0 min 0,000 mm 0 W/m 1,2 C 2,5 C 0,0 km/h (0 Bft) 98 %
28.11.2017 23:00 2,5 C 2,5 C 2,5 C 91 % 1006,5 hPa 0,0 l/m 1,6 km/h (1 Bft) W-SW 247 0 min 0,000 mm 0 W/m 1,2 C 2,5 C 9,7 km/h (2 Bft) 98 %
28.11.2017 23:10 2,5 C 2,5 C 2,5 C 91 % 1006,5 hPa 0,0 l/m 1,6 km/h (1 Bft) W-SW 247 0 min 0,000 mm 0 W/m 1,2 C 2,5 C 11,3 km/h (2 Bft) 97 %
28.11.2017 23:20 2,5 C 2,5 C 2,5 C 91 % 1006,6 hPa 0,0 l/m 0,0 km/h (0 Bft) SW 225 0 min 0,000 mm 0 W/m 1,2 C 2,5 C 6,4 km/h (2 Bft) 98 %
28.11.2017 23:30 2,5 C 2,5 C 2,5 C 91 % 1006,7 hPa 0,0 l/m 3,2 km/h (1 Bft) W-SW 247 0 min 0,000 mm 0 W/m 1,2 C 2,5 C 9,7 km/h (2 Bft) 97 %
28.11.2017 23:40 2,5 C 2,5 C 2,5 C 91 % 1006,8 hPa 0,0 l/m 1,6 km/h (1 Bft) W-SW 247 0 min 0,000 mm 0 W/m 1,2 C 2,5 C 8,0 km/h (2 Bft) 97 %
28.11.2017 23:50 2,5 C 2,5 C 2,5 C 91 % 1006,7 hPa 0,0 l/m 1,6 km/h (1 Bft) SW 225 0 min 0,000 mm 0 W/m 1,2 C 2,5 C 9,7 km/h (2 Bft) 97 %
_ Min-Zeit 22:40 22:40 22:50 04:30 20:50 - 15:50 - - - - - 22:40 09:10 22:50 00:10
Minimum _ 2,5 C 2,5 C 2,5 C 90 % 1006,4 hPa - 0,0 km/h (0 Bft) - - - - - 1,2 C -2,9 C 0,0 km/h (0 Bft) 88 %
_ Max-Zeit 11:50 11:50 11:50 00:00 00:00 07:50 00:00 - - 00:00 00:00 11:40 11:30 11:30 00:00 00:30
Maximum _ 4,4 C 4,3 C 4,4 C 91 % 1013,2 hPa 0,4 l/m 16,1 km/h
S-SW (3 Bft)
- - 0 min 0,025 mm 104 W/m 3,0 C 4,3 C 40,2 km/h
S-SW (6 Bft)
100 %
Durchschnitt _ 3,7 C 3,7 C 3,7 C 91 % 1008,4 hPa #6,6 l/m 8,1 km/h (2 Bft) SW - #0 min. #0,150 mm 41 W/m 2,4 C 1,6 C 19,4 km/h (3 Bft) 99 %
PRIVATE WETTERSTATION BILLIGHEIM-ALLFELD - www.neckar-odenwald-wetter.de - Holger Sonntag